Find Starlink 35202

NORAD ID: 65647 Int'l Des: 2025-210 Owner: SPXS Country: US Constellation: starlink operational
LEOCIRCULAR

Live-Position

3D-Globus wird geladen...

Über Starlink 35202

Beschreibung wird geladen...

Nächste Überflüge

Passes for default location (London). Set your location on the main map for personalized predictions.

Höhenverlauf

Loading altitude history...

Zweizeiliger Elementsatz

1 65647U 25210AB 26106.80048676 .00007982 00000-0 28130-3 0 9995
2 65647 53.1581 130.2196 0001093 86.5722 273.5404 15.30203213 33560
Epoch: 16. Apr. 2026 • Age: 13 hours

Aktueller Status

Höhe 485.1 km
Geschwindigkeit 7.62 km/s
Subsatellitenpunkt -30.62°S, 2.31°W
Startdatum 18. Sept. 2025
Alter 0.5 years
Typ internet

Technische Details

Klassifizierung Payload
Masse 575.00 kg
Trockenmasse 530.00 kg
Gesamtmasse 575.00 kg
Länge 0.30 m
Durchmesser 4.10 m
Spannweite 29.00 m
Form Box + pan
Hersteller SPXS
Bus-Typ Starlink V2MO
Phasenstatus In Orbit
Besitzer/Staat SPXS/US

Most Searched